This is the latest recevied weather packets stored in our database for station/object JR5YHL-13. If no packets are shown the sender has not sent any weather packets the latest 10 day(s).
| Time | Temp. | Humidity | Pressure | Rain* | Wind** | Luminosity | Snow |
|---|---|---|---|---|---|---|---|
| 1777592364 | 19.44° C | 73% | 1003.6 hPa | 0 mm | - | - | - |
| 1777591767 | 20° C | 74% | 1003.7 hPa | 0 mm | - | - | - |
| 1777591169 | 20° C | 76% | 1003.6 hPa | 0 mm | - | - | - |
| 1777590572 | 20° C | 82% | 1003.5 hPa | 0 mm | - | - | - |
| 1777589974 | 19.44° C | 85% | 1003.5 hPa | 0 mm | - | - | - |
| 1777589376 | 19.44° C | 90% | 1003.5 hPa | 0 mm | - | - | - |
| 1777588779 | 19.44° C | 93% | 1003.2 hPa | 0 mm | - | - | - |
| 1777588181 | 18.89° C | 99% | 1003.1 hPa | 0 mm | - | - | - |
| 1777587584 | 18.33° C | 99% | 1003.1 hPa | 0 mm | - | - | - |
| 1777586986 | 17.78° C | 99% | 1003 hPa | 0 mm | - | - | - |
| 1777586388 | 17.22° C | 99% | 1003 hPa | 0 mm | - | - | - |
| 1777585791 | 16.67° C | 99% | 1003 hPa | 0 mm | - | - | - |
| 1777585193 | 17.22° C | 99% | 1002.8 hPa | 0 mm | - | - | - |
| 1777584595 | 16.67° C | 99% | 1002.7 hPa | 0 mm | - | - | - |
| 1777583998 | 16.67° C | 99% | 1002.8 hPa | 0 mm | - | - | - |
| 1777583400 | 16.11° C | 99% | 1002.7 hPa | 0.25 mm | - | - | - |
| 1777582802 | 16.11° C | 99% | 1002.8 hPa | 0.25 mm | - | - | - |
| 1777582205 | 16.11° C | 99% | 1002.8 hPa | 0.25 mm | - | - | - |
| 1777581607 | 16.11° C | 99% | 1002.6 hPa | 0.25 mm | - | - | - |
| 1777581010 | 16.11° C | 99% | 1002.5 hPa | 0.25 mm | - | - | - |
| 1777580412 | 16.11° C | 99% | 1002.6 hPa | 0.25 mm | - | - | - |
| 1777579814 | 16.11° C | 99% | 1002.8 hPa | 0 mm | - | - | - |
| 1777579217 | 16.11° C | 99% | 1002.5 hPa | 0 mm | - | - | - |
| 1777578619 | 16.11° C | 99% | 1002.3 hPa | 0 mm | - | - | - |
| 1777578022 | 16.11° C | 99% | 1002.2 hPa | 0 mm | - | - | - |
* Rain latest hour (hover to see other rain measurements)
** Current wind speed in m/s (hover to see current wind gust speed)